Location: Diebersbach
(48.5163°N, 8.0558°E)
Time: 01:10:39
(UTC+00:00)

FENGYUN 1C DEB - Pass Details

Date: 02 February 2022
Orbit: 690 x 984 km, 98.6° (Epoch: 23 May)

Event Time Altitude Azimuth Distance (km) Brightness Sun altitude
Rises 18:00:30 0° 180° (S) 3,652 ? -15.5°
Reaches altitude 10° 18:03:02 10° 185° (S) 2,724 ? -15.9°
Maximum altitude 18:09:02 52° 261° (W) 1,215 ? -16.9°
Drops below altitude 10° 18:15:03 10° 337° (NNW) 2,723 ? -17.9°
Sets 18:17:35 0° 342° (NNW) 3,651 ? -18.3°
